THORAD AGENA D DEB, 42512

Orbit data source: Space-Track

THORAD AGENA D DEB, 42512 is space debris in SSO originally from a launch on Wed, 08 Apr 1970 UTC launched from the Air Force Western Test Range (AFWTR). Debris objects in space refer to the collection of defunct objects orbiting the Earth. Examples of debris include non-operational satellites, rocket bodies, and fragments generated from explosions, collisions, or faulty payload assembly.

Loading next visibility...
Identifier
42512, 1970-025RS
Orbit
SSO
Country
Flag of USUS
Related business
Manufacturer
Unknown
Mission
Spacecraft
Bus & Motor
Unknown
Mass
Unknown
Launch date (UTC)
1970-04-08 (56 years ago)
Launch vehicle
Unknown
Launch site
Air Force Western Test Range (AFWTR)
Object type
Payload
Rocket body
Debris
Shape & HBR
Unknown shape, 0.1 m
Radar Cross Section
Small (<0.1 m²)

Expand to show TLE details & history
Last TLE update: 4 days ago

TLE from 4 days ago
0 THORAD AGENA D DEB
1 42512U 70025RS  26252.51613188 -.00000009  00000-0  59294-4 0  9991
2 42512  99.8031 148.0348 0007469 158.2623 201.8826 13.43838012627664
Epoch: 2026-09-09T12:23Z
TLE epoch observation values (Epoch: 2026-09-09T12:23:13.794Z)
Latitude
0.00001°
Longitude
-26.33975°
Altitude
1,102.971 km
Speed
7.298 km/s
True Right ascension
09h 52m 08s
True Declination
0° 00' 00"
Sunlit
Object was in daylight at epoch
Visualization orbit readout
Latitude
Unknown
Longitude
Unknown
Altitude
Unknown
Speed
Unknown
Apparent Right ascension
Unknown
Apparent Declination
Unknown
Sunlit
N/A
Visualization observer readout
Local Sidereal Time
02:09:53
Azimuth
Unknown
Elevation
Unknown
Doppler factor
Unknown
Orbital elements
Apogee altitude
1,097.911 km
Perigee altitude
1,086.752 km
Semi-major axis
7,470.468 km
Eccentricity
0.00075
Inclination
99.8031°
RAAN
148.0348°
Arg. of periapsis
158.2623°
True anomaly
201.85073°
Mean anomaly
201.8826°
Eccentric anomaly
201.86666°
Mean motion
3.36141 °/min
Orbital period
107.1 mins
BSTAR
0.000059294
Loading maneuver chart data...
Computing Atmospheric mass density...

Documentation

Showing up to 5 results
|